Zurück zum Katalog

COSMOS 970 DEB

AktivLEO
NORAD 14442·DEBRIS·🇷🇺 Russia

Gestartet Dec 21, 1977 von Baikonur Cosmodrome

Loading…

Nächste Überflüge (nächste 24 Stunden)

TLE

AktuellSource: Space-Track

Epoche: Sep 14, 2026, 09:22 UTC

1 14442U 77121BE  26257.39076093  .00001647  00000-0  14950-2 0  9991
2 14442  65.3661 232.0327 0019733 285.4694 237.6849 13.86270906414172

Verfolge COSMOS 970 DEB in Echtzeit mit AllMySat

Download on the App Store